Simultaneous Nadir Overpasses (SNOs) Predictions

Prediction of SNOs between LANDSAT-8 and METOP-A Satellite Orbit:

Table of predicted SNOs for the next 14.0 days since TLE Epoch: 10/29/2016
Index Date (LANDSAT-8) Time (LANDSAT-8) Lat,Lon (LANDSAT-8) SZA (LANDSAT-8 ) Date (METOP-A) Time (METOP-A) Lat,Lon (METOP-A) SZA (METOP-A ) Distance(km) Time Diff (sec)
1 10/30/2016 06:29:58 81.12, 122.46 97.45 10/30/2016 06:29:25 81.12, 122.30 97.42 2.91 33
2 10/30/2016 07:19:24 -81.14, -69.62 82.50 10/30/2016 07:20:04 -81.14, -69.74 82.50 2.15 40
3 11/02/2016 02:04:12 81.12,-171.09 98.35 11/02/2016 02:03:46 81.12,-171.23 98.32 2.50 26
4 11/02/2016 02:53:38 -81.14, -3.14 81.60 11/02/2016 02:54:25 -81.14, -3.23 81.58 1.47 47
5 11/04/2016 21:38:27 81.12,-104.69 99.21 11/04/2016 21:38:08 81.12,-104.78 99.19 1.59 19
6 11/04/2016 22:27:53 -81.14, 63.28 80.73 11/04/2016 22:28:47 -81.14, 63.26 80.71 0.33 54
7 11/07/2016 17:12:41 81.14, -37.99 100.08 11/07/2016 17:12:29 81.13, -37.99 100.07 0.54 12
8 11/07/2016 18:02:07 -81.16, 130.01 79.86 11/07/2016 18:03:08 -81.16, 130.10 79.83 1.67 61
9 11/10/2016 12:46:55 81.13, 28.30 100.84 11/10/2016 12:46:50 81.13, 28.41 100.86 1.89 5




NCC Satellite Simultaneous Nadir Overpasses (SNOs) Prediction Service
